Location: Bayshore Village Mobile Home Park
(26.6945°N, 81.8642°W)
Time: 00:05:31
(UTC+00:00)

Cosmos 1934 Rocket - Pass Details

Date: 17 June 2021
Orbit: 939 x 998 km, 83.0° (Epoch: 05 August)

Event Time Altitude Azimuth Distance (km) Brightness Sun altitude
Rises 01:18:44 0° 3° (N) 3,618 7.4 -11.6°
Reaches altitude 10° 01:21:20 10° 10° (N) 2,677 6.6 -12.1°
Maximum altitude 01:27:11 46° 82° (E) 1,262 4.3 -13.2°
Enters shadow 01:31:53 16° 150° (SSE) 2,289 5.4 -14.0°
